New Roads False River Regiona, LA

8:28 PM CDT on September 22, 2019 (GMT -0500)
False River

Weather History for KHZR - May, 2019

Change the Weather History Date:

Wednesday, May 1, 2019

  Actual Average (WUND) Record (WUND)
Temperature  
Mean Temperature 79 °F -  
Max Temperature 87 °F - - (-1)
Min Temperature 71 °F - - (-1)
Cooling Degree Days 14    
Growing Degree Days 29 (Base 50)    
Moisture  
Dew Point 68 °F    
Average Humidity 74    
Maximum Humidity 100    
Minimum Humidity 43    
Precipitation  
Precipitation 0.00 in - - ()
Sea Level Pressure  
Sea Level Pressure 30.06 in    
Wind  
Wind Speed 8 mph (SSE)    
Max Wind Speed 16 mph    
Max Gust Speed 22 mph    
Visibility 10 miles    
Events      
Averages and records for this station are not official NWS values.
T = Trace of Precipitation, MM = Missing Value Source: NWS Daily Summary

Daily Weather History Graph

Daily Weather History Graph

Search for Another Location

Airport or City:

Astronomy

May. 01, 2019 Rise Set
Actual Time 6:22 AM CDT 7:44 PM CDT
Civil Twilight 5:56 AM CDT 8:09 PM CDT
Nautical Twilight 5:26 AM CDT 8:40 PM CDT
Astronomical Twilight 4:54 AM CDT 9:12 PM CDT
Moon 4:46 AM CDT (5/1) 4:51 PM CDT (5/1)
Length of Visible Light 14h 13m
Length of Day
13h 22m
Waning Crescent, 10% of the Moon is Illuminated
May 1
Waning Crescent
May 4
New
May 11
First Quarter
May 18
Full
May 26
Last Quarter

Hourly Weather History & Observations

Time (CDT) Temp. Heat Index Dew Point Humidity Pressure Visibility Wind Dir Wind Speed Gust Speed Precip Events Conditions
12:35 AM 71.6 °F - 69.8 °F 94% 30.03 in 10.0 mi SE 9.2 mph - N/A   Mostly Cloudy
12:56 AM 71.6 °F - 69.8 °F 94% 30.03 in 10.0 mi SE 8.1 mph - N/A   Overcast
1:15 AM 71.6 °F - 69.8 °F 94% 30.03 in 10.0 mi SE 6.9 mph - N/A   Overcast
1:55 AM 73.4 °F - 69.8 °F 88% 30.03 in 10.0 mi SE 9.2 mph - N/A   Overcast
2:16 AM 73.4 °F - 69.8 °F 88% 30.03 in 10.0 mi SE 6.9 mph - N/A   Mostly Cloudy
2:35 AM 71.6 °F - 69.8 °F 94% 30.04 in 10.0 mi SE 5.8 mph - N/A   Mostly Cloudy
3:15 AM 71.6 °F - 69.8 °F 94% 30.04 in 10.0 mi SE 5.8 mph - N/A   Scattered Clouds
3:36 AM 71.6 °F - 69.8 °F 94% 30.04 in 10.0 mi SE 8.1 mph - N/A   Scattered Clouds
3:56 AM 71.6 °F - 69.8 °F 94% 30.03 in 10.0 mi ESE 4.6 mph - N/A   Clear
4:37 AM 71.6 °F - 69.8 °F 94% 30.04 in 10.0 mi SE 5.8 mph - N/A   Clear
5:16 AM 71.6 °F - 69.8 °F 94% 30.04 in 10.0 mi SE 4.6 mph - N/A   Clear
5:37 AM 71.6 °F - 69.8 °F 94% 30.04 in 7.0 mi ESE 4.6 mph - N/A   Clear
5:56 AM 71.6 °F - 69.8 °F 94% 30.05 in 7.0 mi ESE 3.5 mph - N/A   Scattered Clouds
6:16 AM 71.6 °F - 69.8 °F 94% 30.05 in 7.0 mi ESE 5.8 mph - N/A   Clear
6:36 AM 71.6 °F - 71.6 °F 100% 30.06 in 5.0 mi ESE 5.8 mph - N/A   Clear
6:55 AM 71.6 °F - 69.8 °F 94% 30.07 in 7.0 mi ESE 3.5 mph - N/A   Clear
7:16 AM 71.6 °F - 71.6 °F 100% 30.08 in 7.0 mi ESE 3.5 mph - N/A   Clear
8:16 AM 73.4 °F - 71.6 °F 94% 30.09 in - ESE 5.8 mph - N/A   Scattered Clouds
8:35 AM 75.2 °F - 71.6 °F 89% 30.09 in 10.0 mi ESE 8.1 mph - N/A   Scattered Clouds
9:16 AM 77.0 °F - 71.6 °F 83% 30.10 in 10.0 mi SE 8.1 mph - N/A   Overcast
10:15 AM 80.6 °F 83.9 °F 69.8 °F 70% 30.11 in 10.0 mi SSE 13.8 mph 21.9 mph N/A   Scattered Clouds
10:35 AM 80.6 °F 83.2 °F 68.0 °F 65% 30.11 in 10.0 mi SSE 16.1 mph 20.7 mph N/A   Mostly Cloudy
10:55 AM 82.4 °F 86.3 °F 69.8 °F 66% 30.11 in 10.0 mi SSE 11.5 mph - N/A   Mostly Cloudy
11:35 AM 82.4 °F 84.6 °F 66.2 °F 58% 30.10 in 10.0 mi SSE 13.8 mph 20.7 mph N/A   Scattered Clouds
11:57 AM 82.4 °F 84.6 °F 66.2 °F 58% 30.10 in 10.0 mi South 15.0 mph 20.7 mph N/A   Scattered Clouds
12:16 PM 84.2 °F 86.6 °F 66.2 °F 55% 30.10 in 10.0 mi SE 13.8 mph 21.9 mph N/A   Clear
12:56 PM 84.2 °F 86.6 °F 66.2 °F 55% 30.09 in 10.0 mi South 13.8 mph 19.6 mph N/A   Scattered Clouds
1:17 PM 84.2 °F 86.6 °F 66.2 °F 55% 30.09 in 10.0 mi South 13.8 mph 19.6 mph N/A   Scattered Clouds
1:36 PM 84.2 °F 86.6 °F 66.2 °F 55% 30.08 in 10.0 mi South 13.8 mph 18.4 mph N/A   Scattered Clouds
1:55 PM 86.0 °F 88.2 °F 66.2 °F 51% 30.08 in 10.0 mi SSE 15.0 mph 19.6 mph N/A   Clear
2:17 PM 86.0 °F 87.3 °F 64.4 °F 48% 30.08 in 10.0 mi South 11.5 mph - N/A   Scattered Clouds
2:36 PM 86.0 °F 88.2 °F 66.2 °F 51% 30.07 in 10.0 mi SE 11.5 mph - N/A   Scattered Clouds
3:16 PM 87.8 °F 88.5 °F 62.6 °F 43% 30.06 in 10.0 mi SSE 9.2 mph 18.4 mph N/A   Clear
3:35 PM 87.8 °F 89.4 °F 64.4 °F 46% 30.06 in 10.0 mi South 11.5 mph - N/A   Clear
3:56 PM 87.8 °F 89.4 °F 64.4 °F 46% 30.05 in 10.0 mi South 9.2 mph 19.6 mph N/A   Clear
4:16 PM 87.8 °F 89.4 °F 64.4 °F 46% 30.05 in 10.0 mi South 9.2 mph 17.3 mph N/A   Clear
4:35 PM 87.8 °F 88.5 °F 62.6 °F 43% 30.05 in 10.0 mi South 11.5 mph 17.3 mph N/A   Clear
5:37 PM 84.2 °F 85.6 °F 64.4 °F 51% 30.04 in 10.0 mi South 9.2 mph - N/A   Clear
5:56 PM 84.2 °F 85.6 °F 64.4 °F 51% 30.04 in 10.0 mi South 10.4 mph - N/A   Clear
6:36 PM 84.2 °F 85.6 °F 64.4 °F 51% 30.03 in 10.0 mi South 6.9 mph - N/A   Clear
6:55 PM 82.4 °F 84.6 °F 66.2 °F 58% 30.03 in 10.0 mi South 9.2 mph - N/A   Clear
7:35 PM 80.6 °F 82.7 °F 66.2 °F 61% 30.02 in 10.0 mi SSE 8.1 mph - N/A   Scattered Clouds
9:57 PM 75.2 °F - 68.0 °F 78% 30.05 in 10.0 mi SSE 6.9 mph - N/A   Scattered Clouds
10:16 PM 75.2 °F - 68.0 °F 78% 30.06 in 10.0 mi SSE 5.8 mph - N/A   Scattered Clouds
10:35 PM 73.4 °F - 68.0 °F 83% 30.05 in 10.0 mi SE 6.9 mph - N/A   Clear
11:16 PM 73.4 °F - 69.8 °F 88% 30.04 in 10.0 mi SE 8.1 mph - N/A   Clear
11:36 PM 73.4 °F - 69.8 °F 88% 30.04 in 10.0 mi SE 9.2 mph 16.1 mph N/A   Clear